GW4499 Weather Reports


Display with metric or nautical units.
time (UTC)temp
F
wind
direction
speed
MPH
gust
MPH
rain 1hr
in
rain 24hr
in
rain mn
in
humidity
%
barometer
mb
20260902031019 69 0.0 0.0 0.00 0.02 0.01 52 1015.4
20260902030039 70 0.0 0.0 0.00 0.02 0.01 49 1015.1
20260902025019 70 0.0 0.0 0.00 0.02 0.01 48 1015.1
20260902024019 71 0.0 0.0 0.00 0.02 0.01 47 1014.8
20260902023019 72 0.0 0.0 0.00 0.02 0.01 45 1014.7
20260902022019 73 0.0 1.0 0.00 0.02 0.01 43 1014.6
20260902021039 74 0.0 0.0 0.00 0.02 0.01 42 1014.8
20260902020019 75 0.0 0.0 0.00 0.02 0.01 40 1014.7
20260902015019 76 0.0 0.0 0.00 0.02 0.01 39 1015.0
20260902014019 77 0.0 1.0 0.00 0.02 0.01 38 1014.9
20260902013039 77 0.0 0.0 0.00 0.02 0.01 39 1014.9
20260902012019 78 0.0 2.0 0.00 0.02 0.01 38 1014.9
20260902011021 78 0.0 0.0 0.00 0.02 0.01 37 1014.8
20260902010019 79 0.0 0.0 0.00 0.02 0.01 36 1015.1
20260902005019 79 0.0 3.0 0.00 0.02 0.01 35 1015.3
20260902004019 80 0.0 3.0 0.00 0.02 0.01 35 1015.4
20260902003019 80 338 1.0 3.0 0.00 0.02 0.01 35 1015.4
20260902002018 81 0.0 2.0 0.00 0.02 0.01 34 1015.7
20260902001019 81 0.0 2.0 0.00 0.02 0.01 34 1015.7
20260902000019 81 0.0 3.0 0.00 0.02 0.01 33 1015.7
20260901235038 81 0.0 2.0 0.00 0.02 0.01 33 1015.7
20260901234020 81 338 1.0 2.0 0.00 0.02 0.01 33 1015.5
20260901233019 81 338 1.0 3.0 0.00 0.02 0.01 33 1015.7
20260901232019 82 293 1.0 8.0 0.00 0.02 0.01 32 1016.0
20260901231019 83 315 3.0 8.0 0.00 0.02 0.01 31 1015.9
20260901230038 84 315 3.0 9.0 0.00 0.02 0.01 30 1015.9
20260901225021 86 315 2.0 8.0 0.00 0.02 0.01 27 1016.0
20260901224020 86 315 1.0 3.0 0.00 0.02 0.01 27 1015.9
20260901223040 86 315 1.0 3.0 0.00 0.02 0.01 27 1016.3
20260901222020 86 0.0 2.0 0.00 0.02 0.01 26 1015.9
20260901221021 87 0 1.0 4.0 0.00 0.02 0.01 24 1016.2
20260901220020 88 0.0 1.0 0.00 0.02 0.01 25 1016.6
20260901215040 87 0.0 0.0 0.00 0.02 0.01 25 1016.4
20260901214020 87 0.0 1.0 0.00 0.02 0.01 24 1016.4
20260901213021 85 0.0 0.0 0.00 0.02 0.01 28 1016.4
20260901212040 85 0.0 2.0 0.00 0.02 0.01 26 1016.5
20260901211020 83 0.0 2.0 0.00 0.02 0.01 29 1016.4
20260901210021 82 0.0 0.0 0.00 0.02 0.01 38 1017.2
20260901205020 81 0.0 1.0 0.00 0.02 0.01 31 1016.7
20260901204020 81 0.0 2.0 0.00 0.02 0.01 38 1017.2
20260901203020 82 0.0 0.0 0.00 0.02 0.01 42 1017.7
20260901202020 82 0.0 1.0 0.00 0.02 0.01 40 1017.5
20260901201020 82 0.0 0.0 0.00 0.02 0.01 43 1017.8
20260901200040 83 0.0 0.0 0.00 0.02 0.01 38 1017.6
20260901195020 83 0.0 0.0 0.00 0.02 0.01 36 1017.3
20260901194040 84 0.0 2.0 0.00 0.02 0.01 35 1017.6
20260901193021 85 225 1.0 3.0 0.00 0.02 0.01 31 1017.5
20260901192020 86 0.0 1.0 0.00 0.02 0.01 37 1018.2
20260901191021 85 158 2.0 5.0 0.00 0.02 0.01 33 1017.9
20260901190520 85 135 1.0 3.0 0.00 0.02 0.01 34 1017.9
20260901185520 84 158 1.0 5.0 0.00 0.02 0.01 40 1018.2
20260901184520 83 23 1.0 4.0 0.00 0.02 0.01 40 1018.0
20260901183520 83 180 2.0 4.0 0.00 0.02 0.01 43 1018.2
20260901182520 82 203 2.0 5.0 0.00 0.02 0.01 42 1018.0
20260901181520 81 113 3.0 7.0 0.00 0.02 0.01 42 1018.1
20260901180600 82 113 1.0 5.0 0.00 0.02 0.01 40 1018.2
20260901175540 83 0.0 3.0 0.00 0.02 0.01 38 1018.5
20260901174520 82 113 1.0 3.0 0.00 0.02 0.01 42 1018.5
20260901173540 80 0.0 2.0 0.00 0.02 0.01 45 1018.3
20260901172520 79 135 1.0 4.0 0.00 0.02 0.01 51 1018.6
20260901171520 79 158 1.0 4.0 0.00 0.02 0.01 44 1018.1
20260901170520 77 90 2.0 3.0 0.00 0.02 0.01 51 1018.6
20260901165520 77 135 2.0 5.0 0.00 0.02 0.01 50 1018.5
20260901164520 77 158 1.0 4.0 0.00 0.02 0.01 51 1018.5
20260901163520 77 0.0 1.0 0.01 0.02 0.01 55 1019.3
20260901162520 75 0.0 1.0 0.01 0.02 0.01 56 1019.0
20260901161520 73 0.0 1.0 0.01 0.02 0.01 63 1018.7
20260901160520 71 0.0 2.0 0.01 0.02 0.01 66 1018.8
20260901155520 69 0.0 0.0 0.01 0.02 0.01 70 1018.6
20260901154520 68 0.0 2.0 0.01 0.02 0.01 72 1018.7
20260901153520 67 0.0 0.0 0.00 0.01 0.00 77 1018.6
20260901152520 66 0.0 2.0 0.00 0.01 0.00 78 1018.6
20260901151520 66 0.0 0.0 0.00 0.01 0.00 80 1018.5
20260901150520 65 0.0 0.0 0.00 0.01 0.00 80 1018.6
20260901145520 65 0.0 0.0 0.00 0.01 0.00 83 1018.8
20260901144520 64 0.0 0.0 0.00 0.01 0.00 82 1018.3
20260901143600 64 0.0 0.0 0.00 0.01 0.00 83 1018.8
20260901142520 63 0.0 1.0 0.00 0.01 0.00 86 1019.1
20260901141540 63 0.0 0.0 0.00 0.01 0.00 86 1018.6
20260901140520 62 0.0 0.0 0.00 0.01 0.00 87 1018.9
20260901135541 62 0.0 0.0 0.00 0.01 0.00 86 1018.9
20260901134520 62 0.0 0.0 0.00 0.01 0.00 86 1018.8
20260901133540 62 0.0 0.0 0.00 0.01 0.00 87 1018.7
20260901132520 62 0.0 0.0 0.00 0.01 0.00 87 1018.5
20260901131520 62 0.0 1.0 0.00 0.01 0.00 87 1018.3
20260901130519 61 0.0 1.0 0.00 0.01 0.00 89 1018.2
20260901125520 61 0.0 0.0 0.00 0.01 0.00 90 1018.1
20260901124519 61 0.0 0.0 0.00 0.01 0.00 90 1018.0
20260901123520 61 0.0 0.0 0.00 0.01 0.00 91 1018.3
20260901122519 61 0.0 0.0 0.00 0.01 0.00 92 1018.3
20260901121540 61 0.0 0.0 0.00 0.01 0.00 92 1018.1
20260901120539 61 0.0 0.0 0.00 0.01 0.00 92 1018.2
20260901115519 61 0.0 0.0 0.00 0.01 0.00 92 1018.1
20260901114520 61 0.0 0.0 0.00 0.01 0.00 92 1018.1
20260901113519 61 0.0 0.0 0.00 0.01 0.00 92 1018.3
20260901112520 61 0.0 0.0 0.00 0.01 0.00 91 1018.3
20260901111520 62 0.0 0.0 0.00 0.01 0.00 91 1018.5
20260901110540 62 0.0 0.0 0.00 0.01 0.00 91 1018.5
20260901105519 62 0.0 0.0 0.00 0.01 0.00 90 1018.3
20260901104519 62 0.0 0.0 0.00 0.01 0.00 90 1018.5
20260901103520 62 0.0 0.0 0.00 0.01 0.00 90 1018.5
20260901102540 62 0.0 0.0 0.00 0.01 0.00 89 1018.8
20260901101519 62 0.0 0.0 0.00 0.01 0.00 89 1018.9
20260901100539 62 0.0 0.0 0.00 0.01 0.00 89 1018.9
20260901095519 62 0.0 0.0 0.00 0.01 0.00 89 1019.1
20260901094519 62 0.0 0.0 0.00 0.01 0.00 88 1019.1
20260901093520 62 0.0 0.0 0.00 0.01 0.00 87 1019.1
20260901092520 63 0.0 0.0 0.00 0.01 0.00 87 1019.8
20260901091520 62 0.0 0.0 0.00 0.01 0.00 87 1019.3
20260901090519 63 0.0 0.0 0.00 0.01 0.00 86 1019.3
20260901085519 63 0.0 0.0 0.00 0.01 0.00 85 1019.5
20260901084519 63 0.0 0.0 0.00 0.01 0.00 84 1019.6
20260901083559 64 0.0 0.0 0.00 0.01 0.00 83 1019.7
20260901082539 64 0.0 0.0 0.00 0.01 0.00 83 1019.9
20260901081519 64 0.0 0.0 0.00 0.01 0.00 82 1020.3
20260901080519 64 0.0 0.0 0.00 0.01 0.00 83 1020.3
20260901075519 64 0.0 0.0 0.00 0.01 0.00 84 1020.2
20260901074519 64 0.0 0.0 0.00 0.01 0.00 85 1020.2
20260901073519 64 0.0 0.0 0.00 0.01 0.00 86 1020.3
20260901072519 64 0.0 0.0 0.00 0.01 0.00 86 1020.2
20260901071519 64 0.0 2.0 0.00 0.01 0.00 86 1020.2
20260901070544 64 0.0 0.0 0.00 0.01 0.00 87 1020.3
20260901065539 64 0.0 0.0 0.00 0.01 0.00 87 1020.4
20260901064519 64 0.0 0.0 0.00 0.01 0.00 87 1019.7
20260901063519 64 0.0 0.0 0.00 0.01 0.00 87 1019.7
20260901062559 63 0.0 0.0 0.00 0.01 0.00 88 1019.0
20260901061519 64 0.0 0.0 0.00 0.01 0.00 88 1019.1
20260901060519 64 0.0 0.0 0.00 0.01 0.00 88 1019.2
20260901055519 64 0.0 0.0 0.00 0.01 0.01 88 1019.6
20260901054519 63 0.0 0.0 0.00 0.01 0.01 86 1019.8
20260901053519 63 0.0 0.0 0.00 0.01 0.01 87 1020.2
20260901052539 63 0.0 0.0 0.00 0.01 0.01 87 1019.8
20260901051519 63 0.0 0.0 0.00 0.01 0.01 87 1019.8
20260901050519 63 0.0 0.0 0.01 0.01 0.01 86 1019.7
20260901045519 64 0.0 0.0 0.01 0.01 0.01 85 1019.5
20260901044539 64 0.0 0.0 0.01 0.01 0.01 84 1019.6
20260901043519 65 0.0 0.0 0.01 0.01 0.01 80 1020.3
20260901042519 66 0.0 1.0 0.01 0.01 0.01 74 1020.8
20260901041540 68 135 2.0 7.0 0.01 0.01 0.01 68 1021.7
20260901040519 70 135 2.0 5.0 0.00 0.00 0.00 61 1022.1
20260901035519 71 158 2.0 9.0 0.00 0.00 0.00 57 1022.2
20260901034519 72 158 4.0 8.0 0.00 0.00 0.00 52 1022.0
20260901033519 72 0.0 1.0 0.00 0.00 0.00 51 1021.1
20260901032519 72 0.0 2.0 0.00 0.00 0.00 50 1019.6